ONEWEB-0720 (55835 NORAD) Tracking and Keplerian Element Data

This shows tracking and keplerian element data for the satellite.

Feedback or suggestion? Click here.




ElementValue
Catalog55835
NameONEWEB-0720
Epoch Orbit925
Epoch Day127.25001157
Epoch Year2023
RAAN175.6602
Inclination86.9031
Eccentricity0.0009764
Argument of Perigee28.458
Mean Anonmoly31.6452
Mean Motion14.22653654
Decay Rate-0.01120398
L11 55835U 23029AR 23127.25001157 -.01120398 00000+0 -53212+0 0 9995
L22 55835 86.9031 175.6602 0009764 28.4580 31.6452 14.22653654 9250



Live tracking and technical data element details for ONEWEB-0720 (NORAD 55835). ONEWEB-0720 can be tracked NOW for your location showing map with azimuth and elevation plus other details from your city location.







IsCatalogInMostPopularTable: catalog: 55835, numindb: 8
Update: records affected: 1



GetName: 55835 ONEWEB-0720

Hit Count: updated at: Tue, 06 Jun 2023 02:28:43 GMT